TimeCDT,TemperatureF,Dew PointF,Humidity,Sea Level PressureIn,VisibilityMPH,Wind Direction,Wind SpeedMPH,Gust SpeedMPH,PrecipitationIn,Events,Conditions,WindDirDegrees,DateUTC
12:53 AM,77.0,61.0,58,29.99,10.0,ESE,11.5,-,N/A,,Mostly Cloudy,110,2013-07-14 05:53:00
1:53 AM,75.9,61.0,60,30.00,10.0,ESE,6.9,-,N/A,,Partly Cloudy,110,2013-07-14 06:53:00
2:53 AM,70.0,63.0,78,29.94,5.0,ESE,15.0,-,0.04,Rain,Rain,120,2013-07-14 07:53:00
3:53 AM,69.1,64.9,87,29.99,10.0,Calm,Calm,-,0.02,Rain,Light Rain,0,2013-07-14 08:53:00
4:53 AM,69.1,64.9,87,29.99,10.0,SSE,3.5,-,0.01,,Partly Cloudy,150,2013-07-14 09:53:00
5:53 AM,68.0,64.0,87,30.00,10.0,East,4.6,-,N/A,,Scattered Clouds,80,2013-07-14 10:53:00
6:53 AM,68.0,64.0,87,30.00,10.0,East,4.6,-,N/A,,Clear,80,2013-07-14 11:53:00
7:53 AM,70.0,64.0,81,30.00,10.0,East,9.2,-,N/A,,Clear,100,2013-07-14 12:53:00
8:53 AM,72.0,64.0,76,30.01,10.0,ESE,9.2,-,N/A,,Clear,120,2013-07-14 13:53:00
9:53 AM,75.9,63.0,64,30.01,10.0,ESE,8.1,-,N/A,,Clear,120,2013-07-14 14:53:00
10:53 AM,81.0,63.0,54,30.00,10.0,ESE,10.4,-,N/A,,Clear,120,2013-07-14 15:53:00
11:53 AM,84.0,61.0,46,30.01,10.0,ESE,13.8,20.7,N/A,,Clear,110,2013-07-14 16:53:00
12:53 PM,86.0,57.9,38,30.01,10.0,ESE,17.3,-,N/A,,Partly Cloudy,110,2013-07-14 17:53:00
1:53 PM,88.0,55.0,32,30.01,10.0,SE,15.0,23.0,N/A,,Clear,130,2013-07-14 18:53:00
2:53 PM,89.1,55.0,31,30.01,10.0,SE,11.5,17.3,N/A,,Partly Cloudy,130,2013-07-14 19:53:00
3:53 PM,88.0,54.0,31,30.01,10.0,ESE,12.7,-,N/A,,Mostly Cloudy,120,2013-07-14 20:53:00
4:53 PM,86.0,53.1,32,30.00,10.0,ESE,13.8,21.9,N/A,,Scattered Clouds,110,2013-07-14 21:53:00
5:53 PM,88.0,54.0,31,30.00,10.0,SE,13.8,19.6,N/A,,Clear,130,2013-07-14 22:53:00
6:53 PM,84.9,55.0,36,30.00,10.0,ESE,9.2,-,N/A,,Clear,120,2013-07-14 23:53:00
7:53 PM,82.9,55.9,39,30.01,10.0,East,8.1,-,N/A,,Clear,90,2013-07-15 00:53:00
8:53 PM,80.1,55.9,43,30.04,10.0,East,8.1,-,N/A,,Scattered Clouds,100,2013-07-15 01:53:00
9:53 PM,77.0,57.0,50,30.06,10.0,ESE,6.9,-,N/A,,Clear,110,2013-07-15 02:53:00
10:53 PM,73.9,57.9,57,30.08,10.0,East,4.6,-,N/A,,Clear,80,2013-07-15 03:53:00
11:53 PM,72.0,57.9,61,30.09,10.0,East,4.6,-,N/A,,Clear,90,2013-07-15 04:53:00